| time (UTC) | temp F | wind direction | speed MPH | gust MPH | rain 1hr in | rain 24hr in | rain mn in | humidity % | barometer mb |
| 20260902074620 | 57 | 277 | 0.0 | 2.0 | 0.00 | 0.00 | 0.00 | 70 | 1015.6 |
| 20260902073627 | 57 | 275 | 0.0 | 0.0 | 0.00 | 0.00 | 0.00 | 70 | 1015.4 |
| 20260902072620 | 57 | 274 | 0.0 | 3.0 | 0.00 | 0.00 | 0.00 | 70 | 1015.5 |
| 20260902071627 | 57 | 272 | 0.0 | 0.0 | 0.00 | 0.00 | 0.00 | 71 | 1015.5 |
| 20260902070615 | 57 | 281 | 0.0 | 0.0 | 0.00 | 0.00 | 0.00 | 70 | 1015.5 |
| 20260902065625 | 57 | 287 | 0.0 | 0.0 | 0.00 | 0.00 | 0.00 | 71 | 1015.5 |
| 20260902064616 | 57 | 267 | 0.0 | 0.0 | 0.00 | 0.00 | 0.00 | 72 | 1015.5 |
| 20260902063644 | 57 | 272 | 0.0 | 0.0 | 0.00 | 0.00 | 0.00 | 72 | 1015.6 |
| 20260902062650 | 58 | 274 | 0.0 | 0.0 | 0.00 | 0.00 | 0.00 | 69 | 1015.5 |
| 20260902061617 | 59 | 58 | 0.0 | 0.0 | 0.00 | 0.00 | 0.00 | 70 | 1015.4 |
| 20260902060641 | 60 | 56 | 0.0 | 0.0 | 0.00 | 0.00 | 0.00 | 69 | 1015.4 |
| 20260902055611 | 60 | 56 | 0.0 | 0.0 | 0.00 | 0.00 | 0.00 | 65 | 1015.5 |
| 20260902054622 | 60 | 314 | 0.0 | 0.0 | 0.00 | 0.00 | 0.00 | 69 | 1015.8 |
| 20260902053629 | 60 | 167 | 0.0 | 0.0 | 0.00 | 0.00 | 0.00 | 66 | 1015.8 |
| 20260902052616 | 61 | 319 | 0.0 | 0.0 | 0.00 | 0.00 | 0.00 | 66 | 1015.5 |
| 20260902051621 | 61 | 284 | 0.0 | 0.0 | 0.00 | 0.00 | 0.00 | 67 | 1015.6 |
| 20260902050610 | 62 | 192 | 0.0 | 2.0 | 0.00 | 0.00 | 0.00 | 65 | 1015.4 |
| 20260902045617 | 64 | 163 | 1.0 | 5.0 | 0.00 | 0.00 | 0.00 | 60 | 1015.9 |
| 20260902044623 | 65 | 144 | 3.0 | 7.0 | 0.00 | 0.00 | 0.00 | 59 | 1016.0 |
| 20260902043630 | 63 | 146 | 0.0 | 0.0 | 0.00 | 0.00 | 0.00 | 56 | 1015.7 |
| 20260902042621 | 63 | 296 | 0.0 | 4.0 | 0.00 | 0.00 | 0.00 | 58 | 1015.7 |
| 20260902041629 | 63 | 277 | 0.0 | 0.0 | 0.00 | 0.00 | 0.00 | 61 | 1016.1 |
| 20260902040617 | 64 | 121 | 0.0 | 0.0 | 0.00 | 0.00 | 0.00 | 63 | 1015.6 |
| 20260902035627 | 63 | 174 | 0.0 | 0.0 | 0.00 | 0.01 | 0.00 | 60 | 1015.6 |
| 20260902034619 | 64 | 174 | 0.0 | 0.0 | 0.00 | 0.01 | 0.00 | 55 | 1015.6 |
| 20260902033628 | 65 | 181 | 0.0 | 0.0 | 0.00 | 0.01 | 0.00 | 54 | 1015.5 |
| 20260902032616 | 65 | 186 | 0.0 | 0.0 | 0.00 | 0.01 | 0.00 | 56 | 1015.7 |
| 20260902031644 | 66 | 194 | 0.0 | 3.0 | 0.00 | 0.01 | 0.00 | 56 | 1015.8 |
| 20260902030616 | 63 | 117 | 0.0 | 1.0 | 0.00 | 0.01 | 0.00 | 67 | 1015.4 |
| 20260902025625 | 62 | 189 | 0.0 | 0.0 | 0.00 | 0.01 | 0.00 | 59 | 1015.1 |
| 20260902024612 | 62 | 269 | 0.0 | 0.0 | 0.00 | 0.01 | 0.00 | 58 | 1015.0 |
| 20260902023619 | 62 | 277 | 0.0 | 0.0 | 0.00 | 0.01 | 0.00 | 58 | 1014.9 |
| 20260902022611 | 63 | 273 | 0.0 | 0.0 | 0.00 | 0.01 | 0.00 | 56 | 1015.0 |
| 20260902021618 | 65 | 219 | 0.0 | 0.0 | 0.00 | 0.01 | 0.00 | 54 | 1014.9 |
| 20260902020624 | 66 | 215 | 0.0 | 0.0 | 0.00 | 0.01 | 0.00 | 51 | 1015.0 |
| 20260902015615 | 66 | 215 | 0.0 | 0.0 | 0.00 | 0.01 | 0.00 | 49 | 1015.0 |
| 20260902014628 | 66 | 196 | 0.0 | 0.0 | 0.00 | 0.01 | 0.00 | 55 | 1015.0 |
| 20260902013615 | 68 | 196 | 0.0 | 0.0 | 0.00 | 0.01 | 0.00 | 55 | 1015.0 |
| 20260902012622 | 69 | 181 | 0.0 | 0.0 | 0.00 | 0.01 | 0.00 | 54 | 1015.0 |
| 20260902011626 | 71 | 158 | 0.0 | 0.0 | 0.00 | 0.01 | 0.00 | 58 | 1015.1 |
| 20260902010616 | 72 | 215 | 0.0 | 0.0 | 0.00 | 0.01 | 0.00 | 43 | 1015.0 |
| 20260902005626 | 72 | 217 | 0.0 | 0.0 | 0.00 | 0.01 | 0.00 | 45 | 1015.0 |
| 20260902004612 | 73 | 209 | 0.0 | 0.0 | 0.00 | 0.01 | 0.00 | 43 | 1015.1 |
| 20260902003616 | 73 | 360 | 0.0 | 0.0 | 0.00 | 0.01 | 0.00 | 42 | 1015.2 |
| 20260902002624 | 72 | 192 | 0.0 | 0.0 | 0.00 | 0.01 | 0.00 | 46 | 1015.3 |
| 20260902001611 | 71 | 206 | 0.0 | 1.0 | 0.00 | 0.01 | 0.00 | 50 | 1015.2 |
| 20260902000612 | 69 | 217 | 1.0 | 9.0 | 0.00 | 0.01 | 0.00 | 52 | 1015.2 |
| 20260901235621 | 69 | 226 | 3.0 | 16.0 | 0.00 | 0.04 | 0.00 | 50 | 1015.3 |
| 20260901234628 | 71 | 200 | 2.0 | 13.0 | 0.00 | 0.04 | 0.00 | 45 | 1015.5 |
| 20260901233640 | 72 | 217 | 2.0 | 10.0 | 0.00 | 0.04 | 0.00 | 41 | 1015.2 |
| 20260901232627 | 73 | 207 | 3.0 | 10.0 | 0.00 | 0.04 | 0.00 | 42 | 1015.2 |
| 20260901231614 | 73 | 198 | 2.0 | 13.0 | 0.00 | 0.04 | 0.00 | 42 | 1015.2 |
| 20260901230622 | 72 | 207 | 3.0 | 11.0 | 0.00 | 0.04 | 0.00 | 46 | 1015.3 |
| 20260901225637 | 74 | 213 | 6.0 | 22.0 | 0.00 | 0.05 | 0.00 | 41 | 1015.4 |
| 20260901224623 | 75 | 198 | 3.0 | 20.0 | 0.00 | 0.05 | 0.00 | 37 | 1015.4 |
| 20260901223630 | 74 | 216 | 2.0 | 18.0 | 0.00 | 0.05 | 0.00 | 44 | 1015.7 |
| 20260901222616 | 74 | 223 | 6.0 | 22.0 | 0.00 | 0.05 | 0.00 | 39 | 1015.8 |
| 20260901221628 | 74 | 223 | 2.0 | 12.0 | 0.00 | 0.05 | 0.00 | 40 | 1015.9 |
| 20260901220616 | 74 | 216 | 3.0 | 12.0 | 0.00 | 0.05 | 0.00 | 44 | 1016.0 |
| 20260901215626 | 73 | 215 | 2.0 | 14.0 | 0.00 | 0.16 | 0.00 | 44 | 1016.1 |
| 20260901214614 | 73 | 211 | 3.0 | 9.0 | 0.00 | 0.16 | 0.00 | 42 | 1016.1 |
| 20260901213626 | 72 | 192 | 1.0 | 8.0 | 0.00 | 0.16 | 0.00 | 53 | 1016.1 |
| 20260901212633 | 72 | 159 | 0.0 | 5.0 | 0.00 | 0.16 | 0.00 | 45 | 1016.3 |
| 20260901211619 | 73 | 165 | 1.0 | 12.0 | 0.00 | 0.16 | 0.00 | 46 | 1016.6 |
| 20260901210626 | 73 | 212 | 3.0 | 9.0 | 0.00 | 0.16 | 0.00 | 44 | 1016.7 |
| 20260901205615 | 70 | 130 | 0.0 | 1.0 | 0.00 | 0.16 | 0.00 | 54 | 1016.9 |
| 20260901204627 | 71 | 98 | 0.0 | 0.0 | 0.00 | 0.16 | 0.00 | 54 | 1016.9 |
| 20260901203634 | 70 | 44 | 0.0 | 0.0 | 0.00 | 0.16 | 0.00 | 59 | 1017.0 |
| 20260901202621 | 69 | 20 | 0.0 | 0.0 | 0.00 | 0.16 | 0.00 | 59 | 1017.1 |
| 20260901201627 | 68 | 336 | 0.0 | 0.0 | 0.00 | 0.16 | 0.00 | 60 | 1017.3 |
| 20260901200617 | 68 | 300 | 0.0 | 1.0 | 0.00 | 0.16 | 0.00 | 62 | 1017.4 |
| 20260901195625 | 69 | 38 | 0.0 | 1.0 | 0.00 | 0.16 | 0.00 | 64 | 1017.2 |
| 20260901194613 | 69 | 32 | 0.0 | 0.0 | 0.00 | 0.16 | 0.00 | 64 | 1017.4 |
| 20260901193641 | 68 | 28 | 0.0 | 0.0 | 0.00 | 0.16 | 0.00 | 64 | 1017.5 |
| 20260901192611 | 67 | 13 | 0.0 | 0.0 | 0.00 | 0.16 | 0.00 | 64 | 1017.6 |
| 20260901191616 | 66 | 22 | 0.0 | 1.0 | 0.00 | 0.16 | 0.00 | 66 | 1017.7 |
| 20260901190623 | 67 | 13 | 0.0 | 1.0 | 0.00 | 0.16 | 0.00 | 66 | 1017.9 |
| 20260901185613 | 67 | 18 | 0.0 | 0.0 | 0.00 | 0.16 | 0.00 | 65 | 1018.0 |
| 20260901184621 | 68 | 23 | 0.0 | 0.0 | 0.00 | 0.16 | 0.00 | 59 | 1018.0 |
| 20260901183614 | 68 | 45 | 0.0 | 0.0 | 0.00 | 0.16 | 0.00 | 58 | 1018.2 |
| 20260901182621 | 67 | 41 | 0.0 | 0.0 | 0.00 | 0.16 | 0.00 | 61 | 1018.4 |
| 20260901181629 | 67 | 64 | 0.0 | 0.0 | 0.00 | 0.16 | 0.00 | 59 | 1018.4 |
| 20260901180627 | 66 | 36 | 0.0 | 0.0 | 0.00 | 0.16 | 0.00 | 63 | 1018.6 |
| 20260901175614 | 65 | 39 | 0.0 | 0.0 | 0.00 | 0.16 | 0.00 | 68 | 1018.6 |
| 20260901174625 | 65 | 51 | 0.0 | 0.0 | 0.00 | 0.16 | 0.00 | 63 | 1018.8 |
| 20260901173612 | 65 | 42 | 0.0 | 0.0 | 0.00 | 0.16 | 0.00 | 65 | 1018.8 |
| 20260901172620 | 64 | 71 | 0.0 | 0.0 | 0.00 | 0.16 | 0.00 | 64 | 1018.8 |
| 20260901171627 | 64 | 107 | 0.0 | 0.0 | 0.00 | 0.16 | 0.00 | 64 | 1018.9 |
| 20260901170617 | 63 | 107 | 0.0 | 0.0 | 0.00 | 0.16 | 0.00 | 66 | 1019.0 |
| 20260901165622 | 63 | 107 | 0.0 | 0.0 | 0.00 | 0.16 | 0.00 | 67 | 1019.0 |
| 20260901164627 | 63 | 105 | 0.0 | 0.0 | 0.00 | 0.16 | 0.00 | 68 | 1019.0 |
| 20260901163614 | 64 | 96 | 0.0 | 0.0 | 0.00 | 0.16 | 0.00 | 69 | 1019.0 |
| 20260901162641 | 63 | 47 | 0.0 | 0.0 | 0.00 | 0.16 | 0.00 | 73 | 1019.0 |
| 20260901161612 | 63 | 38 | 0.0 | 0.0 | 0.00 | 0.16 | 0.00 | 73 | 1019.2 |
| 20260901160619 | 63 | 45 | 0.0 | 0.0 | 0.00 | 0.16 | 0.00 | 73 | 1019.1 |
| 20260901155625 | 63 | 46 | 0.0 | 0.0 | 0.00 | 0.16 | 0.00 | 72 | 1019.1 |
| 20260901154612 | 63 | 38 | 0.0 | 0.0 | 0.00 | 0.16 | 0.00 | 72 | 1019.2 |
| 20260901153623 | 62 | 38 | 0.0 | 0.0 | 0.00 | 0.16 | 0.00 | 71 | 1019.2 |
| 20260901152610 | 62 | 46 | 0.0 | 0.0 | 0.00 | 0.16 | 0.00 | 72 | 1019.1 |
| 20260901151635 | 62 | 53 | 0.0 | 0.0 | 0.00 | 0.16 | 0.00 | 71 | 1019.1 |
| 20260901150619 | 62 | 46 | 0.0 | 0.0 | 0.00 | 0.16 | 0.00 | 72 | 1019.2 |
| 20260901145629 | 62 | 49 | 0.0 | 0.0 | 0.00 | 0.16 | 0.00 | 72 | 1019.2 |
| 20260901144635 | 61 | 27 | 0.0 | 0.0 | 0.00 | 0.16 | 0.00 | 74 | 1019.2 |
| 20260901143621 | 59 | 309 | 0.0 | 0.0 | 0.00 | 0.16 | 0.00 | 75 | 1019.2 |
| 20260901142626 | 58 | 308 | 0.0 | 0.0 | 0.00 | 0.16 | 0.00 | 78 | 1019.2 |
| 20260901141632 | 57 | 263 | 0.0 | 0.0 | 0.00 | 0.16 | 0.00 | 80 | 1019.1 |
| 20260901140621 | 56 | 263 | 0.0 | 0.0 | 0.00 | 0.16 | 0.00 | 81 | 1019.0 |
| 20260901135611 | 54 | 262 | 0.0 | 0.0 | 0.00 | 0.16 | 0.00 | 82 | 1019.0 |
| 20260901134619 | 53 | 263 | 0.0 | 0.0 | 0.00 | 0.16 | 0.00 | 81 | 1019.0 |
| 20260901133626 | 53 | 271 | 0.0 | 0.0 | 0.00 | 0.16 | 0.00 | 82 | 1018.9 |
| 20260901132617 | 53 | 274 | 0.0 | 0.0 | 0.00 | 0.16 | 0.00 | 82 | 1018.9 |
| 20260901131625 | 53 | 275 | 0.0 | 0.0 | 0.00 | 0.16 | 0.00 | 82 | 1018.9 |
| 20260901130632 | 54 | 269 | 0.0 | 0.0 | 0.00 | 0.16 | 0.00 | 83 | 1018.9 |
| 20260901125621 | 54 | 264 | 0.0 | 0.0 | 0.00 | 0.16 | 0.00 | 83 | 1018.8 |
| 20260901124648 | 54 | 269 | 0.0 | 0.0 | 0.00 | 0.16 | 0.00 | 83 | 1018.6 |
| 20260901123618 | 55 | 263 | 0.0 | 0.0 | 0.00 | 0.16 | 0.00 | 82 | 1018.6 |
| 20260901122625 | 55 | 274 | 0.0 | 0.0 | 0.00 | 0.16 | 0.00 | 82 | 1018.6 |
| 20260901121614 | 56 | 284 | 0.0 | 0.0 | 0.00 | 0.16 | 0.00 | 82 | 1018.7 |
| 20260901120619 | 56 | 264 | 0.0 | 0.0 | 0.00 | 0.16 | 0.00 | 82 | 1018.6 |
| 20260901115614 | 56 | 269 | 0.0 | 0.0 | 0.00 | 0.16 | 0.00 | 81 | 1018.4 |
| 20260901114642 | 56 | 269 | 0.0 | 0.0 | 0.00 | 0.16 | 0.00 | 81 | 1018.5 |
| 20260901113628 | 56 | 271 | 0.0 | 0.0 | 0.00 | 0.16 | 0.00 | 82 | 1018.4 |
| 20260901112617 | 56 | 273 | 0.0 | 0.0 | 0.00 | 0.16 | 0.00 | 81 | 1018.4 |
| 20260901111628 | 56 | 261 | 0.0 | 0.0 | 0.00 | 0.16 | 0.00 | 81 | 1018.4 |
| 20260901110615 | 56 | 263 | 0.0 | 0.0 | 0.00 | 0.16 | 0.00 | 82 | 1018.4 |
| 20260901105625 | 57 | 263 | 0.0 | 0.0 | 0.00 | 0.16 | 0.00 | 80 | 1018.4 |
| 20260901104613 | 57 | 260 | 0.0 | 0.0 | 0.00 | 0.16 | 0.00 | 78 | 1018.4 |
| 20260901103623 | 56 | 265 | 0.0 | 0.0 | 0.00 | 0.16 | 0.00 | 80 | 1018.5 |
| 20260901102630 | 57 | 266 | 0.0 | 0.0 | 0.00 | 0.16 | 0.00 | 78 | 1018.4 |
| 20260901101618 | 57 | 260 | 0.0 | 0.0 | 0.00 | 0.16 | 0.00 | 76 | 1018.5 |
| 20260901100644 | 57 | 234 | 0.0 | 0.0 | 0.00 | 0.16 | 0.00 | 78 | 1018.6 |
| 20260901095633 | 57 | 234 | 0.0 | 0.0 | 0.00 | 0.16 | 0.00 | 78 | 1018.5 |
| 20260901094623 | 57 | 262 | 0.0 | 0.0 | 0.00 | 0.16 | 0.00 | 78 | 1018.4 |
| 20260901093628 | 58 | 230 | 0.0 | 0.0 | 0.00 | 0.16 | 0.00 | 75 | 1018.3 |
| 20260901092615 | 58 | 230 | 0.0 | 0.0 | 0.00 | 0.16 | 0.00 | 74 | 1018.5 |
| 20260901091623 | 58 | 205 | 0.0 | 0.0 | 0.00 | 0.16 | 0.00 | 77 | 1018.4 |
| 20260901090613 | 59 | 202 | 0.0 | 0.0 | 0.00 | 0.16 | 0.00 | 74 | 1018.2 |
| 20260901085622 | 60 | 215 | 0.0 | 0.0 | 0.00 | 0.16 | 0.00 | 72 | 1018.2 |
| 20260901084629 | 61 | 306 | 0.0 | 0.0 | 0.00 | 0.16 | 0.00 | 69 | 1018.0 |
| 20260901083616 | 61 | 326 | 0.0 | 0.0 | 0.00 | 0.16 | 0.00 | 67 | 1018.0 |
| 20260901082628 | 61 | 319 | 0.0 | 1.0 | 0.00 | 0.16 | 0.00 | 68 | 1018.0 |
| 20260901081614 | 60 | 284 | 0.0 | 0.0 | 0.00 | 0.16 | 0.00 | 68 | 1018.1 |
| 20260901080639 | 60 | 306 | 0.0 | 0.0 | 0.00 | 0.16 | 0.00 | 66 | 1018.3 |
| 20260901075625 | 60 | 231 | 0.0 | 0.0 | 0.00 | 0.16 | 0.00 | 66 | 1018.2 |